CALSPHERE 1 1 00900U 64063C 26145.58369745 .00000575 00000+0 57619-3 0 9990 2 00900 90.2237 71.2377 0026984 6.5488 168.2941 13.76595064 68316 CALSPHERE 2 1 00902U 64063E 26145.57336648 .00000061 00000+0 78469-4 0 9994 2 00902 90.2373 75.2506 0016771 296.2915 250.7719 13.52898349853209 LCS 1 1 01361U 65034C 26145.55274462 .00000003 00000+0 -64798-3 0 9992 2 01361 32.1392 230.7733 0012604 40.8031 319.3409 9.89310460207645 TEMPSAT 1 1 01512U 65065E 26145.46782718 .00000017 00000+0 17653-4 0 9995 2 01512 90.0003 212.5905 0068073 313.5785 57.4917 13.33592669957026 CALSPHERE 4A 1 01520U 65065H 26145.40799047 .00000123 00000+0 21777-3 0 9990 2 01520 89.8967 122.7135 0070131 166.0680 358.3002 13.36273583959664 OPS 5712 (P/L 160) 1 02826U 67053A 26145.57268708 .00007586 00000+0 10759-2 0 9999 2 02826 69.9161 93.7098 0001310 261.2249 98.8750 14.77338963 62892 OPS 5712 (P/L 153) 1 02874U 67053H 26145.35156122 .00000016 00000+0 49830-4 0 9999 2 02874 69.9717 164.2530 0009580 237.1634 122.8550 13.96824648 3604 RIGIDSPHERE 2 (LCS 4) 1 05398U 71067E 26145.57420487 .00000495 00000+0 15531-3 0 9996 2 05398 87.6216 345.0931 0058104 309.4171 50.1892 14.37839400870633 COSMOS 2493 (SKRL-756 1) 1 39490U 13078A 26145.56917535 .00002453 00000+0 18492-3 0 9993 2 39490 82.4112 283.3123 0011925 326.0603 33.9858 15.02015579674564 COSMOS 2494 (SKRL-756 2) 1 39491U 13078B 26145.60763109 .00002893 00000+0 20325-3 0 9991 2 39491 82.4106 272.7569 0014422 282.0678 77.8932 15.04699425675417